User: anonymous   Login
Location: Fort Wayne
(41.1310°N, 85.1290°W)
Time: 11:00:05
(UTC-04:00)
Language:

COSMOS 2428 - Orbit

View from above orbital plane
View from above orbital plane
View from above satellite
View from above satellite

Ground track
Ground track

The orbit data is extracted from the following two-line orbital elements,

1 31792U 07029A   15186.45630583  .00000137  00000-0  10000-3 0  9990
2 31792 070.9815 106.9244 0010400 267.1669 217.4691 14.12536494413436
Epoch (UTC): 05 July 2015 10:57:04
Eccentricity: 0.0010400
inclination: 70.9815°
perigee height: 843 km
apogee height: 858 km
right ascension of ascending node: 106.9244°
argument of perigee: 267.1669°
revolutions per day: 14.12536494
mean anomaly at epoch: 217.4691°
orbit number at epoch: 41343

The dashed part of the orbit path shows where the satellite is in the earth's shadow,  

DLR